Sheridan, IN

4:52 PM EST on February 25, 2017 (GMT -0500)
Indianapolis Terry

Weather History for KTYQ - December, 2012

Change the Weather History Date:

Sunday, December 30, 2012

  Actual Average (KEYE) Record (KEYE)
Temperature  
Mean Temperature 18 °F -  
Max Temperature 28 °F 34 °F 57 °F (2002)
Min Temperature 9 °F 21 °F 7 °F (1998)
Degree Days  
Heating Degree Days 46    
Moisture  
Dew Point 15 °F    
Average Humidity 75    
Maximum Humidity 86    
Minimum Humidity 64    
Precipitation  
Precipitation 0.00 in - - ()
Sea Level Pressure  
Sea Level Pressure 30.33 in    
Wind  
Wind Speed 10 mph (SW)    
Max Wind Speed 16 mph    
Max Gust Speed 21 mph    
Visibility 9 miles    
Events      
Averages and records for this station are not official NWS values.
T = Trace of Precipitation, MM = Missing Value Source: NWS Daily Summary

Daily Weather History Graph

Daily Weather History Graph

Search for Another Location

Airport or City:

Trip Planner

Search our weather history database for the weather conditions in past years. The results will help you decide how hot, cold, wet, or windy it might be!

Date:

Astronomy

Dec. 30, 2012 Rise Set
Actual Time 8:06 AM EST 5:29 PM EST
Civil Twilight 7:36 AM EST 5:59 PM EST
Nautical Twilight 7:02 AM EST 6:33 PM EST
Astronomical Twilight 6:29 AM EST 7:06 PM EST
Moon 7:59 PM EST (12/30) 9:15 AM EST (12/30)
Length of Visible Light 10h 23m
Length of Day
9h 22m
Waning Gibbous, 95% of the Moon is Illuminated
Dec 30
Waning Gibbous
Jan 4
Last Quarter
Jan 11
New
Jan 18
First Quarter
Jan 26
Full

Hourly Weather History & Observations

Time (EST) Temp. Windchill Dew Point Humidity Pressure Visibility Wind Dir Wind Speed Gust Speed Precip Events Conditions
12:15 AM 22.5 °F 11.7 °F 16.7 °F 79% 30.23 in 10.0 mi West 10.4 mph 16.1 mph N/A   Overcast
12:35 AM 22.5 °F 11.7 °F 17.1 °F 80% 30.24 in 10.0 mi West 10.4 mph - N/A   Overcast
12:55 AM 21.9 °F 9.2 °F 16.5 °F 80% 30.24 in 10.0 mi West 13.8 mph - N/A   Overcast
1:15 AM 21.2 °F 10.1 °F 15.8 °F 80% 30.24 in 10.0 mi West 10.4 mph - N/A   Overcast
1:35 AM 21.2 °F 10.9 °F 15.8 °F 80% 30.25 in 10.0 mi WNW 9.2 mph - N/A   Overcast
1:55 AM 21.0 °F 10.6 °F 15.6 °F 80% 30.25 in 10.0 mi WNW 9.2 mph - N/A   Overcast
2:15 AM 20.3 °F 10.6 °F 14.9 °F 80% 30.25 in 10.0 mi West 8.1 mph - N/A   Overcast
2:35 AM 20.3 °F 8.3 °F 14.9 °F 80% 30.26 in 10.0 mi West 11.5 mph 16.1 mph N/A   Overcast
2:55 AM 20.3 °F 9.8 °F 14.9 °F 80% 30.27 in 10.0 mi West 9.2 mph 16.1 mph N/A   Overcast
3:15 AM 20.1 °F 8.8 °F 14.7 °F 80% 30.28 in 10.0 mi WNW 10.4 mph - N/A   Overcast
3:35 AM 19.9 °F 7.9 °F 14.7 °F 80% 30.30 in 10.0 mi West 11.5 mph 17.3 mph N/A   Overcast
3:55 AM 20.3 °F 10.6 °F 14.9 °F 80% 30.30 in 10.0 mi West 8.1 mph - N/A   Overcast
4:15 AM 20.3 °F 7.2 °F 15.1 °F 80% 30.30 in 10.0 mi WSW 13.8 mph 18.4 mph N/A   Overcast
4:35 AM 19.6 °F 8.1 °F 14.5 °F 81% 30.31 in 10.0 mi WSW 10.4 mph - N/A   Overcast
4:55 AM 19.0 °F 7.5 °F 14.0 °F 81% 30.31 in 10.0 mi West 10.4 mph - N/A   Overcast
5:15 AM 18.3 °F 7.3 °F 12.9 °F 79% 30.32 in 10.0 mi West 9.2 mph - N/A   Mostly Cloudy
5:35 AM 16.7 °F 8.3 °F 11.7 °F 81% 30.32 in 10.0 mi WSW 5.8 mph - N/A   Scattered Clouds
5:55 AM 15.8 °F 7.2 °F 11.1 °F 82% 30.33 in 10.0 mi WSW 5.8 mph - N/A   Clear
6:15 AM 12.9 °F 3.8 °F 8.8 °F 84% 30.34 in 10.0 mi WSW 5.8 mph - N/A   Clear
6:35 AM 12.9 °F 1.6 °F 9.3 °F 86% 30.34 in 7.0 mi WSW 8.1 mph - N/A   Clear
7:15 AM 13.1 °F 1.8 °F 9.3 °F 85% 30.36 in 7.0 mi WSW 8.1 mph - N/A   Clear
7:35 AM 12.2 °F 4.3 °F 8.4 °F 85% 30.36 in 7.0 mi SW 4.6 mph - N/A   Clear
7:55 AM 9.7 °F -0.1 °F 5.7 °F 84% 30.37 in 5.0 mi SW 5.8 mph - N/A   Clear
8:15 AM 9.5 °F -0.3 °F 5.5 °F 84% 30.38 in 4.0 mi SW 5.8 mph - N/A   Clear
8:55 AM 11.3 °F 1.9 °F 7.3 °F 84% 30.37 in 5.0 mi SSW 5.8 mph - N/A   Clear
9:15 AM 11.7 °F 3.7 °F 7.7 °F 84% 30.37 in 3.0 mi SSW 4.6 mph - N/A   Clear
9:35 AM 12.6 °F 3.4 °F 8.8 °F 85% 30.39 in 5.0 mi SW 5.8 mph - N/A   Clear
9:55 AM 14.9 °F 4.0 °F 11.3 °F 86% 30.39 in 5.0 mi SW 8.1 mph - N/A   Clear
10:15 AM 16.2 °F 5.5 °F 12.4 °F 85% 30.41 in 5.0 mi SW 8.1 mph - N/A   Clear
10:35 AM 17.4 °F 7.1 °F 13.1 °F 83% 30.40 in 5.0 mi SSW 8.1 mph - N/A   Clear
10:55 AM 18.9 °F 10.8 °F 13.1 °F 78% 30.40 in 7.0 mi SSW 5.8 mph - N/A   Clear
11:15 AM 20.3 °F 13.8 °F 13.6 °F 75% 30.41 in 7.0 mi SSW 4.6 mph - N/A   Clear
11:35 AM 22.1 °F 12.8 °F 14.4 °F 72% 30.41 in 7.0 mi SW 8.1 mph - N/A   Clear
11:55 AM 23.0 °F 13.1 °F 14.9 °F 71% 30.40 in 7.0 mi SW 9.2 mph - N/A   Clear
12:15 PM 24.3 °F 13.9 °F 15.6 °F 70% 30.39 in 10.0 mi SW 10.4 mph - N/A   Clear
12:35 PM 25.3 °F 16.0 °F 15.8 °F 67% 30.38 in 10.0 mi SW 9.2 mph - N/A   Clear
12:55 PM 25.7 °F 15.1 °F 16.2 °F 67% 30.38 in 10.0 mi SW 11.5 mph - N/A   Clear
1:15 PM 25.7 °F 15.1 °F 15.8 °F 66% 30.37 in 10.0 mi SSW 11.5 mph - N/A   Clear
1:35 PM 26.2 °F 17.1 °F 16.3 °F 66% 30.37 in 10.0 mi SSW 9.2 mph - N/A   Clear
1:55 PM 26.8 °F 15.4 °F 16.5 °F 65% 30.36 in 10.0 mi SSW 13.8 mph 17.3 mph N/A   Clear
2:15 PM 26.8 °F 14.5 °F 16.7 °F 66% 30.35 in 10.0 mi SSW 16.1 mph - N/A   Clear
2:55 PM 27.5 °F 17.4 °F 17.2 °F 65% 30.33 in 10.0 mi SSW 11.5 mph - N/A   Clear
3:15 PM 28.2 °F 19.5 °F 17.4 °F 64% 30.33 in 10.0 mi SSW 9.2 mph - N/A   Clear
3:35 PM 28.2 °F 19.5 °F 17.6 °F 64% 30.32 in 10.0 mi SSW 9.2 mph - N/A   Clear
3:55 PM 28.2 °F 17.7 °F 17.4 °F 64% 30.33 in 10.0 mi SW 12.7 mph - N/A   Clear
4:15 PM 27.9 °F 17.8 °F 17.4 °F 65% 30.33 in 10.0 mi SSW 11.5 mph - N/A   Clear
4:35 PM 27.5 °F 18.0 °F 17.1 °F 65% 30.32 in 10.0 mi SSW 10.4 mph 17.3 mph N/A   Clear
4:55 PM 27.3 °F 17.7 °F 16.9 °F 65% 30.32 in 10.0 mi SSW 10.4 mph - N/A   Clear
5:15 PM 26.8 °F 16.5 °F 16.7 °F 66% 30.32 in 10.0 mi SSW 11.5 mph - N/A   Clear
5:35 PM 27.0 °F 15.6 °F 16.7 °F 65% 30.32 in 10.0 mi SSW 13.8 mph - N/A   Clear
5:55 PM 27.0 °F 15.2 °F 16.7 °F 65% 30.33 in 10.0 mi SSW 15.0 mph - N/A   Clear
6:15 PM 26.4 °F 15.0 °F 16.5 °F 66% 30.33 in 10.0 mi SSW 13.8 mph - N/A   Clear
6:35 PM 26.6 °F 15.2 °F 16.7 °F 66% 30.34 in 10.0 mi SSW 13.8 mph 20.7 mph N/A   Clear
6:55 PM 26.2 °F 15.2 °F 16.5 °F 67% 30.35 in 10.0 mi SSW 12.7 mph 19.6 mph N/A   Clear
7:15 PM 25.9 °F 14.8 °F 16.5 °F 68% 30.35 in 10.0 mi SSW 12.7 mph - N/A   Clear
7:35 PM 25.7 °F 14.0 °F 16.7 °F 69% 30.34 in 10.0 mi SSW 13.8 mph 17.3 mph N/A   Clear
7:55 PM 25.7 °F 15.7 °F 16.9 °F 69% 30.32 in 10.0 mi South 10.4 mph - N/A   Clear
8:15 PM 25.9 °F 15.3 °F 17.4 °F 70% 30.32 in 10.0 mi South 11.5 mph - N/A   Clear
8:35 PM 25.7 °F 15.7 °F 17.2 °F 70% 30.32 in 10.0 mi SSW 10.4 mph - N/A   Clear
8:55 PM 25.7 °F 15.1 °F 17.2 °F 70% 30.31 in 10.0 mi SSW 11.5 mph 17.3 mph N/A   Clear
9:15 PM 25.0 °F 14.8 °F 16.7 °F 71% 30.31 in 10.0 mi SSW 10.4 mph - N/A   Clear
9:35 PM 25.2 °F 14.4 °F 17.1 °F 71% 30.30 in 10.0 mi SSW 11.5 mph - N/A   Clear
9:55 PM 24.8 °F 13.4 °F 17.1 °F 72% 30.29 in 10.0 mi South 12.7 mph - N/A   Clear
10:15 PM 25.0 °F 14.2 °F 17.6 °F 74% 30.28 in 10.0 mi SSW 11.5 mph - N/A   Clear
10:35 PM 25.5 °F 13.3 °F 18.1 °F 74% 30.28 in 10.0 mi SSW 15.0 mph 18.4 mph N/A   Clear
10:55 PM 25.7 °F 13.5 °F 18.5 °F 74% 30.27 in 10.0 mi SSW 15.0 mph - N/A   Clear
11:15 PM 26.1 °F 15.0 °F 19.2 °F 75% 30.28 in 10.0 mi SSW 12.7 mph - N/A   Clear
11:35 PM 26.4 °F 15.5 °F 19.4 °F 75% 30.27 in 10.0 mi SSW 12.7 mph - N/A   Clear
11:55 PM 26.4 °F 16.0 °F 19.9 °F 77% 30.26 in 10.0 mi SSW 11.5 mph - N/A   Clear